Location: New York
(40.7127°N, 74.0060°W)
Time: 19:35:52
(UTC-04:00)

PRISM - Visible Passes

Search period start: 18 April 2024 00:00
Search period end: 28 April 2024 00:00
Orbit: 508 x 527 km, 98.2° (Epoch: 18 April)

Date Brightness Start Highest point End Pass type
(mag) Time Alt. Az. Time Alt. Az. Time Alt. Az.
18 Apr ? 21:24:13 10° SSW 21:27:26 27° W 21:30:41 10° NW visible
19 Apr ? 21:09:35 10° S 21:13:08 41° W 21:16:42 10° NNW visible
20 Apr ? 20:55:05 10° S 20:58:48 66° WSW 21:02:31 10° NNW visible
21 Apr ? 20:40:43 10° SSE 20:44:26 79° ENE 20:48:10 10° N visible
22 Apr ? 20:26:26 10° SSE 20:30:02 49° ENE 20:33:40 10° N visible
22 Apr ? 22:03:42 10° W 22:04:19 10° W 22:04:56 10° W visible
23 Apr ? 20:12:17 10° SE 20:15:38 32° ENE 20:18:59 10° N visible
23 Apr ? 21:47:22 10° SW 21:49:42 16° W 21:52:02 10° NW visible
24 Apr ? 21:32:01 10° SSW 21:35:04 23° W 21:38:07 10° NW visible
25 Apr ? 21:16:57 10° SSW 21:20:23 36° W 21:23:52 10° NNW visible
26 Apr ? 21:02:03 10° S 21:05:42 57° W 21:09:23 10° NNW visible
27 Apr ? 20:47:16 10° SSE 20:50:59 89° ENE 20:54:44 10° NNW visible
